TimeCST,TemperatureF,Dew PointF,Humidity,Sea Level PressureIn,VisibilityMPH,Wind Direction,Wind SpeedMPH,Gust SpeedMPH,PrecipitationIn,Events,Conditions,WindDirDegrees,DateUTC
12:14 AM,19.4,15.8,86,30.07,10.0,WNW,11.5,-,N/A,,Overcast,290,2013-01-03 06:14:00
12:53 AM,19.0,12.9,77,30.13,10.0,WNW,11.5,-,N/A,,Overcast,290,2013-01-03 06:53:00
1:13 AM,19.4,12.2,74,30.08,7.0,WNW,10.4,-,0.00,Snow,Light Snow,290,2013-01-03 07:13:00
1:53 AM,18.0,12.0,78,30.14,6.0,West,10.4,-,0.00,Snow,Light Snow,280,2013-01-03 07:53:00
2:53 AM,17.1,10.9,77,30.16,6.0,WNW,9.2,-,0.00,,Haze,290,2013-01-03 08:53:00
3:11 AM,17.6,10.4,73,30.12,9.0,WNW,11.5,-,N/A,,Overcast,300,2013-01-03 09:11:00
3:39 AM,15.8,10.4,79,30.13,10.0,WNW,10.4,-,N/A,,Overcast,290,2013-01-03 09:39:00
3:53 AM,16.0,10.0,77,30.19,10.0,WNW,11.5,-,N/A,,Overcast,290,2013-01-03 09:53:00
4:07 AM,15.8,10.4,79,30.13,10.0,West,8.1,-,N/A,,Overcast,280,2013-01-03 10:07:00
4:37 AM,15.8,8.6,73,30.13,10.0,WNW,9.2,-,N/A,,Overcast,300,2013-01-03 10:37:00
4:53 AM,15.1,9.0,77,30.20,10.0,WNW,10.4,-,N/A,,Overcast,290,2013-01-03 10:53:00
5:53 AM,15.1,8.1,74,30.22,10.0,WNW,12.7,17.3,N/A,,Overcast,290,2013-01-03 11:53:00
6:53 AM,12.0,6.1,77,30.25,10.0,WNW,8.1,-,N/A,,Overcast,290,2013-01-03 12:53:00
7:08 AM,12.2,6.8,79,30.19,10.0,WNW,6.9,-,N/A,,Overcast,290,2013-01-03 13:08:00
7:32 AM,10.4,5.0,79,30.20,10.0,WNW,9.2,-,N/A,,Overcast,290,2013-01-03 13:32:00
7:53 AM,10.9,5.0,77,30.26,10.0,West,8.1,-,N/A,,Overcast,280,2013-01-03 13:53:00
8:53 AM,10.9,5.0,77,30.28,3.0,West,4.6,-,0.00,Snow,Light Snow,260,2013-01-03 14:53:00
8:59 AM,10.4,6.8,85,30.22,1.8,West,5.8,-,0.00,Snow,Light Snow,270,2013-01-03 14:59:00
9:53 AM,12.0,7.0,80,30.29,1.2,WNW,9.2,-,0.00,Snow,Light Snow,290,2013-01-03 15:53:00
10:05 AM,10.4,5.0,79,30.25,2.0,WNW,9.2,-,0.00,Snow,Light Snow,300,2013-01-03 16:05:00
10:53 AM,10.9,3.9,73,30.31,4.0,West,9.2,-,0.00,Snow,Light Snow,280,2013-01-03 16:53:00
11:45 AM,12.2,3.2,67,30.24,10.0,WNW,5.8,-,0.00,,Scattered Clouds,290,2013-01-03 17:45:00
11:53 AM,12.0,3.9,70,30.29,10.0,West,6.9,-,0.00,,Partly Cloudy,260,2013-01-03 17:53:00
12:53 PM,10.9,3.9,73,30.28,10.0,WNW,10.4,-,N/A,,Clear,290,2013-01-03 18:53:00
1:53 PM,10.9,1.9,67,30.28,10.0,West,8.1,-,N/A,,Clear,260,2013-01-03 19:53:00
2:53 PM,12.9,3.0,65,30.28,10.0,West,8.1,-,N/A,,Clear,270,2013-01-03 20:53:00
3:53 PM,12.0,3.0,67,30.28,10.0,WSW,8.1,-,N/A,,Clear,240,2013-01-03 21:53:00
4:53 PM,10.9,3.0,70,30.28,10.0,WSW,6.9,-,N/A,,Clear,240,2013-01-03 22:53:00
5:53 PM,9.0,3.9,80,30.27,10.0,WSW,4.6,-,N/A,,Clear,240,2013-01-03 23:53:00
6:53 PM,9.0,3.9,80,30.26,10.0,SW,6.9,-,N/A,,Clear,230,2013-01-04 00:53:00
7:53 PM,10.9,6.1,81,30.23,10.0,SW,9.2,-,N/A,,Clear,220,2013-01-04 01:53:00
8:53 PM,12.0,7.0,80,30.19,10.0,SW,10.4,-,N/A,,Clear,220,2013-01-04 02:53:00
9:53 PM,12.9,8.1,81,30.17,10.0,SW,9.2,-,N/A,,Clear,220,2013-01-04 03:53:00
10:53 PM,14.0,9.0,80,30.17,10.0,SW,10.4,-,N/A,,Clear,230,2013-01-04 04:53:00
11:53 PM,12.9,9.0,84,30.14,9.0,SW,10.4,-,N/A,,Clear,230,2013-01-04 05:53:00